sat.trackr.live / text

‹ back to catalog

STARLINK-31281

NORAD 59077 · 2024-041D

PAYLOAD ACTIVE UNKNOWN

§ Identity

Operator
Country
US
Launch date
2024-02-29
Launch site
AFETR
Launch vehicle
Mass (kg)
RCS (m²)

Purposes: comms

External: N2YO · Heavens-Above · Gunter

§ Orbital elements

Epoch: 2026-09-20T03:20:14.984448Z

Period
94.27 min
Inclination
43.0030°
Eccentricity
0.0001079
Mean motion
15.27575020 rev/d
Perigee alt
482.3 km
Apogee alt
483.8 km
Semi-major
6,861.2 km
B*
1.5192e-5
RAAN
292.2489°
Arg perigee
267.1020°
Mean anomaly
92.9708°
Rev number
14,406

§ Raw data

STARLINK-312811 59077U 24041D   26263.13906232  .00000156  00000+0  15192-4 0  99972 59077  43.0030 292.2489 0001079 267.1020  92.9708 15.27575020144065

JSON: /api/v1/satellites/59077 · /tle

For live sub-satellite position, see the globe view (requires WebGL).

§ Visibility from observer

Set your observer location to see the next 7 days of passes ≥ 10°. The values pass through the URL so the page stays shareable.

No JS? Fill the form by hand. The geolocation button needs JavaScript.